TimeEDT,TemperatureF,Dew PointF,Humidity,Sea Level PressureIn,VisibilityMPH,Wind Direction,Wind SpeedMPH,Gust SpeedMPH,PrecipitationIn,Events,Conditions,WindDirDegrees,DateUTC
12:35 AM,77.0,69.8,78,29.97,7.0,SW,4.6,-,N/A,,Clear,220,2013-08-29 04:35:00
12:55 AM,77.0,69.8,78,29.96,7.0,SSW,3.5,-,N/A,,Clear,200,2013-08-29 04:55:00
1:15 AM,77.0,69.8,78,29.95,7.0,SSW,3.5,-,N/A,,Clear,210,2013-08-29 05:15:00
1:35 AM,77.0,69.8,78,29.96,7.0,Calm,Calm,-,N/A,,Clear,0,2013-08-29 05:35:00
1:55 AM,77.0,69.8,78,29.96,7.0,Calm,Calm,-,N/A,,Clear,0,2013-08-29 05:55:00
2:15 AM,77.0,69.8,78,29.96,7.0,West,3.5,-,N/A,,Clear,260,2013-08-29 06:15:00
2:35 AM,77.0,69.8,78,29.96,7.0,Calm,Calm,-,N/A,,Clear,0,2013-08-29 06:35:00
2:55 AM,77.0,69.8,78,29.95,7.0,Calm,Calm,-,N/A,,Clear,0,2013-08-29 06:55:00
3:15 AM,77.0,69.8,78,29.95,7.0,Calm,Calm,-,N/A,,Clear,0,2013-08-29 07:15:00
3:35 AM,77.0,69.8,78,29.96,10.0,Calm,Calm,-,N/A,,Clear,0,2013-08-29 07:35:00
3:55 AM,77.0,69.8,78,29.95,7.0,WSW,3.5,-,N/A,,Clear,250,2013-08-29 07:55:00
4:15 AM,77.0,69.8,78,29.95,7.0,Calm,Calm,-,N/A,,Clear,0,2013-08-29 08:15:00
4:35 AM,75.2,69.8,83,29.95,7.0,Calm,Calm,-,N/A,,Scattered Clouds,0,2013-08-29 08:35:00
4:55 AM,75.2,69.8,83,29.95,7.0,Calm,Calm,-,N/A,,Scattered Clouds,0,2013-08-29 08:55:00
5:15 AM,75.2,68.0,78,29.95,10.0,Calm,Calm,-,N/A,,Scattered Clouds,0,2013-08-29 09:15:00
5:55 AM,73.4,69.8,88,29.96,7.0,Calm,Calm,-,N/A,,Overcast,0,2013-08-29 09:55:00
6:15 AM,75.2,69.8,83,29.96,7.0,Calm,Calm,-,N/A,,Overcast,0,2013-08-29 10:15:00
6:55 AM,73.4,69.8,88,29.96,7.0,Calm,Calm,-,N/A,,Mostly Cloudy,0,2013-08-29 10:55:00
7:15 AM,73.4,69.8,88,29.97,7.0,Calm,Calm,-,N/A,,Mostly Cloudy,0,2013-08-29 11:15:00
7:55 AM,75.2,69.8,83,29.99,10.0,Calm,Calm,-,N/A,,Mostly Cloudy,0,2013-08-29 11:55:00
8:55 AM,80.6,71.6,74,29.99,10.0,WNW,4.6,-,N/A,,Scattered Clouds,300,2013-08-29 12:55:00
9:55 AM,84.2,71.6,66,29.99,10.0,NW,4.6,-,N/A,,Clear,310,2013-08-29 13:55:00
10:55 AM,87.8,69.8,55,30.00,10.0,WNW,5.8,-,N/A,,Scattered Clouds,300,2013-08-29 14:55:00
11:55 AM,89.6,69.8,52,29.99,10.0,North,8.1,-,N/A,,Scattered Clouds,10,2013-08-29 15:55:00
12:55 PM,89.6,69.8,52,29.99,10.0,North,6.9,-,N/A,,Scattered Clouds,350,2013-08-29 16:55:00
1:55 PM,89.6,69.8,52,29.99,10.0,North,9.2,-,N/A,,Scattered Clouds,350,2013-08-29 17:55:00
2:55 PM,89.6,69.8,52,29.97,10.0,NNE,9.2,-,N/A,,Scattered Clouds,30,2013-08-29 18:55:00
3:55 PM,89.6,69.8,52,29.96,10.0,ENE,4.6,-,N/A,,Scattered Clouds,60,2013-08-29 19:55:00
4:55 PM,87.8,71.6,58,29.96,10.0,ENE,4.6,-,N/A,,Scattered Clouds,60,2013-08-29 20:55:00
5:55 PM,86.0,71.6,62,29.97,10.0,NE,6.9,-,N/A,,Scattered Clouds,50,2013-08-29 21:55:00
6:55 PM,84.2,71.6,66,29.97,10.0,ENE,4.6,-,N/A,,Clear,70,2013-08-29 22:55:00
7:55 PM,82.4,71.6,70,29.99,10.0,East,4.6,-,N/A,,Clear,90,2013-08-29 23:55:00
8:55 PM,80.6,71.6,74,30.01,10.0,Calm,Calm,-,N/A,,Scattered Clouds,0,2013-08-30 00:55:00
9:15 PM,80.6,69.8,70,30.02,10.0,Calm,Calm,-,N/A,,Scattered Clouds,0,2013-08-30 01:15:00
9:35 PM,80.6,69.8,70,30.02,10.0,East,3.5,-,N/A,,Mostly Cloudy,80,2013-08-30 01:35:00
9:55 PM,80.6,69.8,70,30.03,10.0,ENE,3.5,-,N/A,,Overcast,60,2013-08-30 01:55:00
10:15 PM,78.8,69.8,74,30.03,10.0,ENE,3.5,-,N/A,,Overcast,60,2013-08-30 02:15:00
10:35 PM,78.8,69.8,74,30.03,10.0,Calm,Calm,-,N/A,,Mostly Cloudy,0,2013-08-30 02:35:00
10:55 PM,78.8,69.8,74,30.03,10.0,Calm,Calm,-,N/A,,Scattered Clouds,0,2013-08-30 02:55:00
11:15 PM,77.0,69.8,78,30.05,10.0,Calm,Calm,-,N/A,,Scattered Clouds,0,2013-08-30 03:15:00
11:35 PM,77.0,69.8,78,30.05,10.0,NNE,3.5,-,N/A,,Scattered Clouds,20,2013-08-30 03:35:00
11:55 PM,77.0,68.0,74,30.05,10.0,NE,3.5,-,N/A,,Scattered Clouds,50,2013-08-30 03:55:00